User: anonymous
Location: Hancock Field Station
(44.9202°N, 120.4259°W)
Time: 13:30:33
(UTC-07:00)
Language:

Nadezhda 4 Rocket - Orbit

View from above orbital plane
View from above orbital plane
View from above satellite
View from above satellite

Ground track
Ground track

The orbit data is extracted from the following two-line orbital elements,

1 23180U 94041B   14207.48122181  .00000087  00000-0  72025-4 0  4881
2 23180 082.9478 357.3129 0027642 308.3687 108.3730 13.77840634  7383
Epoch (UTC): 26 July 2014 11:32:57
Eccentricity: 0.0027642
inclination: 82.9478°
perigee height: 951 km
apogee height: 992 km
right ascension of ascending node: 357.3129°
argument of perigee: 308.3687°
revolutions per day: 13.77840634
mean anomaly at epoch: 108.3730°
orbit number at epoch: 738

The dashed part of the orbit path shows where the satellite is in the earth's shadow,  

DLR